"TOA5","MOW","CPU:UNC_MeetingWaters","DataHourly"
"TIMESTAMP","SondeTempC","SpCond","DOSat","DOmg","pH","Turb","BattVolt_Min"
"TS","","","","","","",""
"","Smp","Smp","Smp","Smp","Smp","Smp","Min"
"2006-09-01 00:00:00",23.25,0.104000002146,92.5,7.90000009537,8.13000011444,246.399993896,12.6400003433
"2006-09-01 01:00:00",22.7700004578,0.101000003517,92.5,7.96000003815,8.10999965668,239.399993896,12.6199998856
"2006-09-01 02:00:00",22.6499996185,0.109999999404,92.0,7.94000005722,8.06000041962,171.199996948,12.6300001144
"2006-09-01 03:00:00",22.5799999237,0.116999998689,91.5999984741,7.92000007629,8.05000019073,116.300003052,12.6300001144
"2006-09-01 04:00:00",22.3299999237,0.104000002146,92.4000015259,8.02000045776,8.09000015259,378.5,12.6199998856
"2006-09-01 05:00:00",21.9599990845,0.108999997377,91.4000015259,7.98999977112,8.02999973297,226.300003052,12.6199998856
"2006-09-01 06:00:00",22.0100002289,0.122000001371,90.6999969482,7.92999982834,8.02999973297,104.599998474,12.6199998856
"2006-09-01 07:00:00",21.9200000763,0.133000001311,90.5,7.92000007629,8.03999996185,72.3000030518,12.6099996567
"2006-09-01 08:00:00",21.8199996948,0.145999997854,90.3000030518,7.92000007629,8.06000041962,58.2999992371,12.5699996948
"2006-09-01 09:00:00",21.7600002289,0.156000003219,90.3000030518,7.92999982834,8.11999988556,47.0,12.6400003433
"2006-09-01 10:00:00",21.8500003815,0.155000001192,90.0,7.88999986649,8.21000003815,68.1999969482,12.5699996948
"2006-09-01 11:00:00",21.6499996185,0.109999999404,88.5,7.78999996185,8.22000026703,80.4000015259,12.6000003815
"2006-09-01 12:00:00",21.4599990845,0.0960000008345,88.4000015259,7.80999994278,8.25,73.5,12.6300001144
"2006-09-01 13:00:00",21.2600002289,0.0500000007451,88.5999984741,7.86000013351,8.27999973297,61.5,12.6499996185
"2006-09-01 14:00:00",21.1299991608,0.0460000000894,88.4000015259,7.86000013351,8.27999973297,53.4000015259,12.6000003815
"2006-09-01 15:00:00",21.2800006866,0.151999995112,90.1999969482,8.0,8.27000045776,36.9000015259,12.7700004578
"2006-09-01 16:00:00",21.3299999237,0.149000003934,89.9000015259,7.96000003815,8.31999969482,43.5,12.6199998856
"2006-09-01 17:00:00",21.1599998474,0.0619999989867,87.8000030518,7.80000019073,8.35000038147,52.9000015259,12.6099996567
"2006-09-01 18:00:00",21.2099990845,0.0500000007451,87.8000030518,7.80000019073,8.35999965668,41.5999984741,12.5799999237
"2006-09-01 19:00:00",20.5100002289,0.0460000000894,87.5,7.86999988556,8.35999965668,41.2000007629,12.5500001907
"2006-09-01 20:00:00",18.3700008392,0.0460000000894,87.5999984741,8.22999954224,8.68000030518,37.2000007629,12.5699996948
"2006-09-01 21:00:00",18.2299995422,0.0450000017881,87.6999969482,8.27000045776,8.76000022888,34.0,12.5600004196
"2006-09-01 22:00:00",18.0900001526,0.0439999997616,85.5,8.07999992371,8.72999954224,31.2000007629,12.5699996948
"2006-09-01 23:00:00",17.8700008392,0.0430000014603,93.1999969482,8.85000038147,8.64999961853,27.1000003815,12.5500001907
"2006-09-02 00:00:00",17.8999996185,0.0419999994338,90.0,8.53999996185,8.68999958038,24.2999992371,12.5200004578
"2006-09-02 01:00:00",17.8199996948,0.0410000011325,93.1999969482,8.85000038147,8.56999969482,19.2000007629,12.5600004196
"2006-09-02 02:00:00",18.1900005341,0.0399999991059,93.3000030518,8.80000019073,8.53999996185,17.5,12.5600004196
"2006-09-02 03:00:00",18.1000003815,0.0399999991059,93.4000015259,8.81999969482,8.53999996185,17.2000007629,12.5200004578
"2006-09-02 04:00:00",18.3899993896,0.0430000014603,93.0,8.72999954224,8.59000015259,266.100006104,12.5500001907
"2006-09-02 05:00:00",17.9200000763,0.0430000014603,92.8000030518,8.80000019073,8.56999969482,15.6999998093,12.5399999619
"2006-09-02 06:00:00",17.6700000763,0.0430000014603,92.6999969482,8.84000015259,8.55000019073,16.0,12.5399999619
"2006-09-02 07:00:00",17.7299995422,0.0419999994338,92.4000015259,8.80000019073,8.56000041962,16.8999996185,12.529999733
"2006-09-02 08:00:00",17.5699996948,0.0419999994338,93.0999984741,8.89000034332,8.53999996185,18.3999996185,12.5200004578
"2006-09-02 09:00:00",17.8400001526,0.0419999994338,93.1999969482,8.85000038147,8.52000045776,15.8000001907,12.5500001907
"2006-09-02 10:00:00",18.1700000763,0.0410000011325,92.8000030518,8.75,8.46000003815,16.3999996185,12.6099996567
"2006-09-02 11:00:00",18.8400001526,0.0379999987781,93.5,8.69999980927,8.35999965668,14.8999996185,13.3299999237
"2006-09-02 12:00:00",20.0599994659,0.0320000015199,94.6999969482,8.60000038147,8.27999973297,15.8000001907,13.0900001526
"2006-09-02 13:00:00",22.6299991608,0.0270000007004,96.3000030518,8.31999969482,8.10999965668,15.8000001907,13.3900003433
"2006-09-02 14:00:00",26.0699996948,0.0209999997169,94.0999984741,7.63000011444,7.23000001907,15.1000003815,13.4600000381
"2006-09-02 15:00:00",25.1800003052,0.0170000009239,95.0,7.82000017166,5.73000001907,18.7999992371,13.1099996567
"2006-09-02 16:00:00",24.3799991608,0.0149999996647,95.3000030518,7.96999979019,5.69000005722,21.2000007629,13.1499996185
"2006-09-02 17:00:00",24.0499992371,0.0140000004321,94.5,7.94999980927,6.19999980927,17.2000007629,13.0100002289
"2006-09-02 18:00:00",23.5400009155,0.0140000004321,94.3000030518,8.01000022888,6.38999986649,17.0,12.9600000381
"2006-09-02 19:00:00",22.8799991608,0.0140000004321,93.6999969482,8.06000041962,6.55000019073,17.7999992371,12.9300003052
"2006-09-02 20:00:00",22.25,0.0140000004321,93.1999969482,8.10999965668,6.67999982834,23.8999996185,12.9099998474
"2006-09-02 21:00:00",21.5799999237,0.0140000004321,93.0999984741,8.19999980927,6.73999977112,37.0999984741,12.8900003433
"2006-09-02 22:00:00",21.3099994659,0.0140000004321,92.6999969482,8.21000003815,6.82999992371,35.7999992371,12.8699998856
"2006-09-02 23:00:00",21.0,0.0140000004321,92.5999984741,8.25,6.90999984741,29.7000007629,12.8599996567
"2006-09-03 00:00:00",20.7800006866,0.0140000004321,92.4000015259,8.27000045776,6.96000003815,21.2000007629,12.8400001526
"2006-09-03 01:00:00",20.7099990845,0.0130000002682,92.4000015259,8.27999973297,7.03000020981,19.2999992371,12.8299999237
"2006-09-03 02:00:00",20.7199993134,0.0130000002682,92.1999969482,8.26000022888,7.03999996185,17.6000003815,12.8100004196
"2006-09-03 03:00:00",20.5100002289,0.0130000002682,92.1999969482,8.30000019073,7.09000015259,17.8999996185,12.8000001907
"2006-09-03 04:00:00",20.4400005341,0.0130000002682,92.9000015259,8.36999988556,7.19000005722,15.1000003815,12.779999733
"2006-09-03 05:00:00",20.1900005341,0.0130000002682,92.5,8.38000011444,7.28000020981,16.2000007629,12.7700004578
"2006-09-03 06:00:00",20.1499996185,0.0130000002682,92.1999969482,8.35999965668,7.30999994278,18.1000003815,12.7600002289
"2006-09-03 07:00:00",19.9899997711,0.0130000002682,92.1999969482,8.38000011444,7.32999992371,14.6999998093,12.75
"2006-09-03 08:00:00",19.8500003815,0.0130000002682,92.4000015259,8.42000007629,7.34999990463,16.1000003815,12.75
"2006-09-03 09:00:00",20.3799991608,0.0130000002682,92.6999969482,8.36999988556,7.34000015259,15.0,12.779999733
"2006-09-03 10:00:00",21.3799991608,0.0130000002682,93.3000030518,8.26000022888,7.30999994278,14.6000003815,12.9300003052
"2006-09-03 11:00:00",22.6000003815,0.0140000004321,94.0999984741,8.13000011444,7.21000003815,15.5,13.4499998093
"2006-09-03 12:00:00",23.9200000763,0.0130000002682,94.3000030518,7.94999980927,6.96000003815,15.8000001907,13.2899999619
"2006-09-03 13:00:00",25.1800003052,0.0120000001043,94.0,7.73999977112,6.67000007629,13.8000001907,13.3199996948
"2006-09-03 14:00:00",25.2600002289,0.0109999999404,92.9000015259,7.63999986649,6.36999988556,12.6000003815,13.2600002289
"2006-09-03 15:00:00",24.6900005341,0.00999999977648,93.3000030518,7.75,6.25,12.6999998093,13.1899995804
"2006-09-03 16:00:00",24.2900009155,0.00999999977648,93.5,7.82999992371,6.5,13.1999998093,13.0500001907
"2006-09-03 17:00:00",24.1299991608,0.00999999977648,93.4000015259,7.84000015259,6.57000017166,12.8999996185,13.0799999237
"2006-09-03 18:00:00",23.8199996948,0.00999999977648,93.1999969482,7.88000011444,6.57000017166,14.0,12.9799995422
"2006-09-03 19:00:00",23.5100002289,0.00999999977648,93.3000030518,7.92000007629,6.69000005722,13.8999996185,12.9399995804
"2006-09-03 20:00:00",23.1100006104,0.00999999977648,93.5999984741,8.01000022888,6.80999994278,14.0,12.9099998474
"2006-09-03 21:00:00",22.8299999237,0.00999999977648,93.5,8.05000019073,6.88999986649,14.6000003815,12.8900003433
"2006-09-03 22:00:00",22.5799999237,0.00999999977648,93.5,8.09000015259,6.96000003815,13.8999996185,12.8800001144
"2006-09-03 23:00:00",22.4200000763,0.00999999977648,93.5,8.10999965668,7.01000022888,13.8999996185,12.8699998856
"2006-09-04 00:00:00",22.2999992371,0.00999999977648,93.5,8.11999988556,7.07000017166,13.1999998093,12.8500003815
"2006-09-04 01:00:00",22.0300006866,0.00999999977648,93.3000030518,8.15999984741,7.11000013351,15.6000003815,12.8299999237
"2006-09-04 02:00:00",21.7800006866,0.00999999977648,93.3000030518,8.18999958038,7.15000009537,13.3999996185,12.8100004196
"2006-09-04 03:00:00",21.7600002289,0.00999999977648,93.1999969482,8.18999958038,7.17999982834,13.6999998093,12.8199996948
"2006-09-04 04:00:00",21.5599994659,0.00999999977648,93.0999984741,8.21000003815,7.21000003815,14.0,12.8000001907
"2006-09-04 05:00:00",21.3700008392,0.0109999999404,93.0999984741,8.23999977112,7.23000001907,15.5,12.779999733
"2006-09-04 06:00:00",21.1100006104,0.0109999999404,93.0999984741,8.27999973297,7.25,13.1999998093,12.7700004578
"2006-09-04 07:00:00",20.9400005341,0.0109999999404,93.0999984741,8.31000041962,7.26999998093,15.5,12.75
"2006-09-04 08:00:00",21.3899993896,0.0109999999404,93.4000015259,8.26000022888,7.30000019073,15.1999998093,12.7700004578
"2006-09-04 09:00:00",21.8700008392,0.0120000001043,93.5999984741,8.19999980927,7.30000019073,14.0,12.8599996567
"2006-09-04 10:00:00",22.3899993896,0.0120000001043,93.8000030518,8.14000034332,7.26000022888,14.6000003815,12.9799995422
"2006-09-04 11:00:00",23.1499996185,0.0130000002682,94.3000030518,8.06000041962,7.17000007629,14.3999996185,13.4200000763
"2006-09-04 12:00:00",23.5,0.0120000001043,94.0999984741,8.0,7.01999998093,13.1000003815,13.2600002289
"2006-09-04 13:00:00",25.6000003815,0.0109999999404,94.5,7.73000001907,6.75,14.0,13.9499998093
"2006-09-04 14:00:00",27.2299995422,0.00800000037998,93.0999984741,7.38999986649,6.07000017166,15.1000003815,13.9200000763
"2006-09-04 15:00:00",25.8099994659,0.00700000021607,93.5999984741,7.61999988556,6.19000005722,14.3999996185,13.3699998856
"2006-09-04 16:00:00",25.5100002289,0.00600000005215,93.4000015259,7.65000009537,6.23000001907,16.7000007629,13.4600000381
"2006-09-04 17:00:00",24.8400001526,0.00600000005215,93.1999969482,7.71999979019,6.38000011444,19.1000003815,13.0600004196
"2006-09-04 18:00:00",24.1599998474,0.00600000005215,93.0,7.80000019073,6.51999998093,15.1000003815,12.9499998093
"2006-09-04 19:00:00",24.0,0.00600000005215,93.0,7.82999992371,6.61000013351,15.5,12.9099998474
"2006-09-04 20:00:00",24.5799999237,0.211999997497,90.0,7.48999977112,8.27000045776,414.200012207,12.8999996185
"2006-09-04 21:00:00",25.1399993896,0.123000003397,87.6999969482,7.23000001907,8.10999965668,441.0,12.8900003433
"2006-09-04 22:00:00",24.6100006104,0.144999995828,84.4000015259,7.01999998093,7.92999982834,198.600006104,12.8699998856
"2006-09-04 23:00:00",24.0200004578,0.145999997854,89.5999984741,7.53999996185,7.76000022888,374.799987793,12.8599996567
"2006-09-05 00:00:00",22.9699993134,0.0649999976158,93.1999969482,8.0,7.92999982834,1375.0,12.8400001526
"2006-09-05 01:00:00",22.7900009155,0.0659999996424,93.5999984741,8.06999969482,7.86000013351,1181.0,12.8199996948
"2006-09-05 02:00:00",22.9599990845,0.0769999995828,93.6999969482,8.03999996185,7.78999996185,950.0,12.8100004196
"2006-09-05 03:00:00",23.0799999237,0.097999997437,91.4000015259,7.82999992371,7.65999984741,392.5,12.8000001907
"2006-09-05 04:00:00",23.2000007629,0.111000001431,91.4000015259,7.80999994278,7.63999986649,252.5,12.779999733
"2006-09-05 05:00:00",23.2099990845,0.116999998689,91.1999969482,7.78999996185,7.69999980927,243.0,12.7700004578
"2006-09-05 06:00:00",23.1499996185,0.122000001371,91.0999984741,7.78999996185,7.76000022888,207.100006104,12.7600002289
"2006-09-05 07:00:00",23.1000003815,0.125,91.0,7.78999996185,7.82000017166,245.5,12.75
"2006-09-05 08:00:00",23.0599994659,0.127000004053,91.0999984741,7.80999994278,7.86999988556,239.5,12.7399997711
"2006-09-05 09:00:00",23.1900005341,0.130999997258,91.6999969482,7.84000015259,7.92000007629,159.899993896,12.779999733
"2006-09-05 10:00:00",23.2199993134,0.131999999285,91.8000030518,7.84000015259,7.94999980927,171.800003052,12.8900003433
"2006-09-05 11:00:00",23.1599998474,0.130999997258,91.1999969482,7.80000019073,7.98999977112,209.399993896,12.7299995422
"2006-09-05 12:00:00",23.0699996948,0.126000002027,91.5999984741,7.84999990463,8.02999973297,300.100006104,13.0699996948
"2006-09-05 13:00:00",23.4500007629,0.126000002027,92.8000030518,7.88999986649,8.06000041962,222.899993896,13.6599998474
"2006-09-05 14:00:00",23.7800006866,0.097999997437,92.8000030518,7.84999990463,8.06999969482,162.699996948,14.0100002289
"2006-09-05 15:00:00",23.7900009155,0.0900000035763,92.6999969482,7.82999992371,8.10999965668,155.5,13.7299995422
"2006-09-05 16:00:00",23.75,0.0890000015497,92.3000030518,7.80999994278,8.15999984741,122.0,13.3699998856
"2006-09-05 17:00:00",23.7000007629,0.0489999987185,91.5,7.75,8.18999958038,88.9000015259,13.1599998474
"2006-09-05 18:00:00",23.6100006104,0.0469999983907,91.0,7.71999979019,8.22000026703,71.0999984741,12.9899997711
"2006-09-05 19:00:00",23.3500003815,0.0460000000894,90.0,7.67000007629,8.23999977112,64.5999984741,12.9300003052
"2006-09-05 20:00:00",23.1000003815,0.0460000000894,88.4000015259,7.57000017166,8.35000038147,60.5999984741,12.9099998474
"2006-09-05 21:00:00",22.5900001526,0.0460000000894,88.3000030518,7.63000011444,8.60999965668,57.5999984741,12.8900003433
"2006-09-05 22:00:00",21.9899997711,0.0450000017881,75.8000030518,6.63000011444,8.61999988556,43.5999984741,12.8800001144
"2006-09-05 23:00:00",21.9099998474,0.0450000017881,89.1999969482,7.80999994278,8.61999988556,36.2000007629,12.8699998856
"2006-09-06 00:00:00",21.7399997711,0.0450000017881,89.3000030518,7.84999990463,8.59000015259,28.0,12.8500003815
"2006-09-06 01:00:00",21.6200008392,0.0450000017881,88.0999984741,7.76000022888,8.53999996185,25.5,12.8400001526
"2006-09-06 02:00:00",21.1599998474,0.0450000017881,88.4000015259,7.84999990463,8.60999965668,26.3999996185,12.8100004196
"2006-09-06 03:00:00",21.2299995422,0.0450000017881,92.5,8.21000003815,8.56000041962,23.5,12.7899999619
"2006-09-06 04:00:00",20.9400005341,0.0450000017881,94.8000030518,8.46000003815,8.52999973297,21.5,12.7700004578
"2006-09-06 05:00:00",20.8099994659,0.0450000017881,95.0,8.5,8.5,22.2999992371,12.7600002289
"2006-09-06 06:00:00",20.5100002289,0.0460000000894,94.5999984741,8.51000022888,8.5,22.2999992371,12.7399997711
"2006-09-06 07:00:00",20.6200008392,0.0460000000894,94.5,8.48999977112,8.48999977112,19.7000007629,12.7299995422
"2006-09-06 08:00:00",20.6200008392,0.0460000000894,94.4000015259,8.47999954224,8.47999954224,21.6000003815,12.7299995422
"2006-09-06 09:00:00",20.4799995422,0.0460000000894,85.6999969482,7.71999979019,8.47999954224,20.5,12.75
"2006-09-06 10:00:00",20.4699993134,0.0460000000894,94.5,8.52000045776,8.44999980927,19.7000007629,12.8299999237
"2006-09-06 11:00:00",20.7600002289,0.0460000000894,94.9000015259,8.5,8.40999984741,20.7999992371,13.220000267
"2006-09-06 12:00:00",21.7199993134,0.0450000017881,95.5999984741,8.40999984741,8.27999973297,18.8999996185,13.3699998856
"2006-09-06 13:00:00",23.1299991608,0.0439999997616,95.6999969482,8.18999958038,8.15999984741,27.3999996185,14.0399999619
"2006-09-06 14:00:00",24.7399997711,0.0379999987781,96.5,8.01000022888,8.22999954224,34.5999984741,13.3800001144
"2006-09-06 15:00:00",23.6499996185,0.0289999991655,95.5,8.10000038147,7.86999988556,24.7000007629,13.4799995422
"2006-09-06 16:00:00",23.1000003815,0.0270000007004,95.6999969482,8.19999980927,7.69000005722,23.7000007629,13.970000267
"2006-09-06 17:00:00",23.1599998474,0.0260000005364,95.5,8.17000007629,7.59000015259,20.2999992371,13.1400003433
"2006-09-06 18:00:00",22.5300006866,0.0250000003725,95.4000015259,8.25,7.57999992371,21.7000007629,12.9799995422
"2006-09-06 19:00:00",22.0400009155,0.0250000003725,95.0,8.30000019073,7.57000017166,19.6000003815,12.9200000763
"2006-09-06 20:00:00",21.5300006866,0.0250000003725,94.5999984741,8.35000038147,7.57000017166,18.8999996185,12.9099998474
"2006-09-06 21:00:00",21.0,0.0250000003725,94.5,8.43000030518,7.57999992371,19.3999996185,12.8900003433
"2006-09-06 22:00:00",20.4599990845,0.0250000003725,94.0999984741,8.47999954224,7.59000015259,21.6000003815,12.8699998856
"2006-09-06 23:00:00",20.1599998474,0.0250000003725,94.0999984741,8.52999973297,7.61000013351,19.1000003815,12.8599996567
"2006-09-07 00:00:00",20.0300006866,0.0250000003725,94.0,8.53999996185,7.63999986649,17.6000003815,12.8400001526
"2006-09-07 01:00:00",19.3500003815,0.0250000003725,93.5,8.60999965668,7.65000009537,17.7999992371,12.8199996948
"2006-09-07 02:00:00",19.1700000763,0.0250000003725,93.3000030518,8.63000011444,7.67000007629,18.7000007629,12.8000001907
"2006-09-07 03:00:00",18.9899997711,0.0250000003725,93.0,8.63000011444,7.69000005722,17.0,12.779999733
"2006-09-07 04:00:00",18.8999996185,0.0250000003725,92.8000030518,8.61999988556,7.69999980927,16.3999996185,12.7600002289
"2006-09-07 05:00:00",18.4200000763,0.0250000003725,93.0999984741,8.73999977112,7.71000003815,16.3999996185,12.7299995422
"2006-09-07 06:00:00",18.3700008392,0.0240000002086,92.8000030518,8.72000026703,7.73000001907,16.1000003815,12.720000267
"2006-09-07 07:00:00",18.1399993896,0.0250000003725,92.5999984741,8.73999977112,7.75,15.0,12.6999998093
"2006-09-07 08:00:00",18.2199993134,0.0240000002086,92.6999969482,8.73999977112,7.75,14.8999996185,12.720000267
"2006-09-07 09:00:00",19.1100006104,0.0250000003725,93.3000030518,8.64000034332,7.73000001907,14.6999998093,12.7399997711
"2006-09-07 10:00:00",20.2800006866,0.0240000002086,94.1999969482,8.51000022888,7.69000005722,17.2999992371,13.3000001907
"2006-09-07 11:00:00",22.0699996948,0.0240000002086,95.6999969482,8.35000038147,7.63000011444,16.0,13.6599998474
"2006-09-07 12:00:00",22.3899993896,0.0230000000447,95.8000030518,8.31999969482,7.46999979019,15.5,13.4200000763
"2006-09-07 13:00:00",23.7700004578,0.0209999997169,96.1999969482,8.13000011444,7.32000017166,15.6000003815,13.970000267
"2006-09-07 14:00:00",23.5400009155,0.019999999553,95.0,8.06999969482,6.86999988556,15.3999996185,13.0200004578
"2006-09-07 15:00:00",23.0900001526,0.0189999993891,95.3000030518,8.15999984741,6.98000001907,14.8999996185,14.0500001907
"2006-09-07 16:00:00",22.9400005341,0.0189999993891,95.0,8.15999984741,6.96000003815,16.7000007629,13.0900001526
"2006-09-07 17:00:00",22.8500003815,0.0179999992251,95.0,8.17000007629,7.03999996185,15.3000001907,13.0699996948
"2006-09-07 18:00:00",23.1399993896,0.0179999992251,95.1999969482,8.14000034332,7.05999994278,16.7000007629,13.0200004578
"2006-09-07 19:00:00",22.6299991608,0.0179999992251,94.8000030518,8.18999958038,7.07999992371,15.3999996185,12.9200000763
"2006-09-07 20:00:00",21.8500003815,0.0179999992251,94.4000015259,8.27999973297,7.13000011444,17.6000003815,12.8999996185
"2006-09-07 21:00:00",21.6700000763,0.0179999992251,94.4000015259,8.31000041962,7.19000005722,17.3999996185,12.8900003433
"2006-09-07 22:00:00",21.3400001526,0.0179999992251,94.1999969482,8.34000015259,7.21999979019,18.5,12.8699998856
"2006-09-07 23:00:00",21.0900001526,0.0179999992251,94.1999969482,8.38000011444,7.26000022888,18.5,12.8599996567
"2006-09-08 00:00:00",20.8500003815,0.0170000009239,94.0,8.39999961853,7.30000019073,17.7999992371,12.8400001526
"2006-09-08 01:00:00",20.7000007629,0.0170000009239,94.0,8.43000030518,7.34999990463,18.7000007629,12.8199996948
"2006-09-08 02:00:00",20.5,0.0170000009239,93.8000030518,8.43999958038,7.36999988556,18.2999992371,12.7899999619
"2006-09-08 03:00:00",20.3400001526,0.0170000009239,93.6999969482,8.46000003815,7.38000011444,18.0,12.779999733
"2006-09-08 04:00:00",20.3899993896,0.0170000009239,93.8000030518,8.46000003815,7.40000009537,16.1000003815,12.75
"2006-09-08 05:00:00",20.2600002289,0.0170000009239,93.5999984741,8.47000026703,7.40000009537,16.5,12.7299995422
"2006-09-08 06:00:00",19.9799995422,0.0170000009239,93.5999984741,8.52000045776,7.42000007629,15.3999996185,12.720000267
"2006-09-08 07:00:00",20.1499996185,0.0179999992251,93.6999969482,8.5,7.42000007629,15.0,12.7100000381
"2006-09-08 08:00:00",20.0100002289,0.0179999992251,93.6999969482,8.52000045776,7.42000007629,14.8000001907,12.6999998093
"2006-09-08 09:00:00",20.6900005341,0.0179999992251,94.1999969482,8.44999980927,7.42000007629,14.8000001907,12.75
"2006-09-08 10:00:00",21.4599990845,0.0179999992251,94.5,8.35000038147,7.40000009537,14.1000003815,13.0
"2006-09-08 11:00:00",22.0100002289,0.0179999992251,94.8000030518,8.27999973297,7.30999994278,19.0,13.3800001144
"2006-09-08 12:00:00",22.8600006104,0.0170000009239,94.9000015259,8.15999984741,7.11999988556,15.5,13.2700004578
"2006-09-08 13:00:00",24.7099990845,0.0149999996647,95.4000015259,7.92999982834,6.53999996185,16.7999992371,13.9399995804
"2006-09-08 14:00:00",26.9500007629,0.0130000002682,95.6999969482,7.63000011444,6.28000020981,14.8000001907,13.9399995804
"2006-09-08 15:00:00",25.6499996185,0.0109999999404,94.0,7.67999982834,5.57000017166,15.6000003815,13.8800001144
"2006-09-08 16:00:00",24.4799995422,0.0109999999404,93.0999984741,7.76000022888,6.25,15.6000003815,13.9200000763
"2006-09-08 17:00:00",24.2099990845,0.00999999977648,93.3000030518,7.82000017166,6.5,15.1999998093,13.1499996185
"2006-09-08 18:00:00",23.7000007629,0.00999999977648,93.4000015259,7.90999984741,6.59999990463,15.6000003815,13.0200004578
"2006-09-08 19:00:00",23.0100002289,0.00999999977648,92.8000030518,7.96000003815,6.69000005722,15.0,12.9300003052
"2006-09-08 20:00:00",22.4200000763,0.00899999961257,92.3000030518,8.01000022888,6.69000005722,15.8000001907,12.8999996185
"2006-09-08 21:00:00",21.6499996185,0.00899999961257,91.9000015259,8.09000015259,6.86999988556,15.6999998093,12.8900003433
"2006-09-08 22:00:00",21.1299991608,0.00899999961257,91.9000015259,8.17000007629,6.96999979019,15.8999996185,12.8800001144
"2006-09-08 23:00:00",20.8299999237,0.00899999961257,91.4000015259,8.18000030518,7.01000022888,16.0,12.8599996567
"2006-09-09 00:00:00",20.1800003052,0.00899999961257,91.3000030518,8.27000045776,7.05999994278,15.6000003815,12.8400001526
"2006-09-09 01:00:00",19.7700004578,0.00899999961257,91.1999969482,8.32999992371,7.11999988556,14.8000001907,12.8199996948
"2006-09-09 02:00:00",19.6700000763,0.00899999961257,90.9000015259,8.31999969482,7.15999984741,15.6000003815,12.8000001907
"2006-09-09 03:00:00",19.5599994659,0.00800000037998,90.5,8.30000019073,7.19999980927,15.1999998093,12.779999733
"2006-09-09 04:00:00",18.8500003815,0.00800000037998,90.4000015259,8.40999984741,7.21999979019,16.3999996185,12.7600002289
"2006-09-09 05:00:00",18.7000007629,0.00800000037998,90.0999984741,8.40999984741,7.26999998093,14.6999998093,12.7399997711
"2006-09-09 06:00:00",18.5200004578,0.00800000037998,89.9000015259,8.43000030518,7.28999996185,13.8999996185,12.720000267
"2006-09-09 07:00:00",18.0599994659,0.00800000037998,90.0,8.51000022888,7.32999992371,15.3999996185,12.6999998093
"2006-09-09 08:00:00",18.3400001526,0.00800000037998,90.0999984741,8.47000026703,7.34000015259,14.3999996185,12.720000267
"2006-09-09 09:00:00",19.1700000763,0.00800000037998,90.8000030518,8.39000034332,7.32000017166,13.3999996185,12.779999733
"2006-09-09 10:00:00",20.5499992371,0.00800000037998,91.6999969482,8.25,7.28999996185,12.8999996185,13.2700004578